Lid_Strength_Index
1 -0 -1 -1 -1 -1 -1 -1 -2 -1 -1 -1 -1 -2 -2 -1 -1 -1 -0 -0 -0 0 0 1 1 1 1 1 1 -0 -1 0 -1 -1 -1 -1 -1 -1 -1 -1 -1 -1 -1
1 -1 -1 -2 -1 -1 -1 -1 -1 -1 -2 -2 -2 -2 -2 -1 -1 -0 0 0 0 0 0 1 1 1 1 1 1 1 0 1 -1 -1 -1 -1 -1 -1 -1 -1 -1 -1 -1
1 -1 -1 -1 -1 -2 -2 -1 -1 -1 -2 -2 -2 -2 -1 -1 -0 -0 1 1 0 1 0 1 1 1 1 1 2 2 1 2 0 -0 0 -0 -1 -1 -1 -1 -1 -1 -1
1 -1 -1 -1 -1 -2 -2 -2 -2 -1 -2 -1 -1 -1 -1 -0 -0 0 1 1 1 1 1 1 2 2 2 2 2 2 2 2 1 1 1 1 1 -0 -1 -1 -0 0 -0
3 1 -0 -1 -2 -2 -1 -2 -2 -1 -1 -1 -1 -1 -0 0 1 1 1 1 1 1 1 1 2 2 3 3 3 3 3 3 4 4 4 3 1 1 0 0 1 1 1
3 3 1 0 -1 -1 -1 -1 -1 -1 -1 -1 -0 0 1 1 1 2 2 2 2 2 1 2 2 2 3 3 3 3 4 4 6 6 5 4 3 1 1 1 1 1 1
3 3 2 1 1 0 1 0 0 0 0 0 1 1 2 2 2 2 3 3 3 2 2 2 1 2 2 2 2 3 3 4 7 8 6 5 4 1 1 1 1 1 1
3 3 3 3 3 3 2 3 2 3 2 2 2 3 3 2 2 3 3 4 3 2 1 2 2 2 2 2 3 3 3 4 7 8 7 6 5 3 1 1 1 1 1
2 3 3 3 4 3 4 4 4 3 3 2 3 3 3 3 3 3 4 3 2 2 1 2 2 2 2 3 4 4 4 4 7 8 7 6 5 2 1 0 0 0 0
2 3 3 3 4 4 4 4 3 3 3 3 3 3 3 4 4 4 4 3 2 2 2 2 2 2 2 3 4 4 4 5 8 8 7 6 4 2 2 0 -0 0 0
4 3 3 3 3 3 3 4 4 4 4 4 4 4 4 5 5 5 4 3 3 3 3 3 3 3 4 6 5 5 5 6 7 6 6 5 3 2 1 0 -1 -1 -1
6 5 5 5 5 5 4 4 4 5 5 5 5 5 5 5 5 5 6 5 5 5 5 4 4 4 6 7 7 7 7 7 7 7 6 5 3 1 0 -0 -2 -2 -1
6 6 6 6 5 5 5 5 5 5 5 5 5 5 5 6 6 6 6 6 6 6 7 7 7 7 7 7 8 8 8 7 7 7 7 5 3 2 1 0 -1 -2 -1
7 7 7 7 6 6 5 5 4 5 5 5 5 5 5 5 5 5 6 6 6 6 6 6 6 6 6 7 7 7 7 8 8 8 7 6 4 3 2 1 -0 -2 -2
9 8 8 8 7 7 7 6 6 6 5 5 5 5 5 6 6 6 5 5 5 6 6 6 6 6 6 6 6 7 7 7 7 7 7 7 5 3 2 1 0 -1 -2
9 9 9 9 9 8 8 8 8 7 7 7 7 7 7 7 7 7 7 6 6 6 6 6 6 6 6 6 6 6 6 6 6 6 6 6 6 4 3 2 1 -1 -2
11 11 11 11 11 11 10 9 9 9 9 8 8 8 9 8 8 9 8 8 7 7 7 6 6 6 6 6 6 6 6 6 6 6 6 6 5 4 3 2 1 -1 -2
13 13 12 12 13 12 12 11 10 11 9 10 9 10 10 9 10 10 9 9 8 8 8 8 7 7 7 7 7 6 6 6 6 6 6 6 6 6 4 2 1 -1 -2
14 14 14 13 14 13 13 12 12 12 11 11 10 11 11 11 11 11 10 9 9 9 8 8 8 8 8 7 7 7 6 7 6 6 6 6 6 5 5 4 2 -0 -2
15 14 14 14 14 14 13 13 13 13 12 12 11 11 11 11 11 11 11 11 10 9 9 8 8 7 7 7 7 7 7 6 6 6 6 6 6 6 5 4 3 1 -1
15 15 15 15 14 14 14 15 14 15 13 13 12 12 11 11 11 11 11 11 11 11 10 9 8 8 8 7 8 7 5 6 7 6 6 6 7 6 6 5 4 2 1
16 16 15 15 15 15 14 14 14 15 14 14 13 12 12 12 11 11 12 12 11 11 11 10 10 9 9 7 9 9 10 7 6 7 7 8 7 7 6 5 4 3 2
17 17 16 15 15 15 15 15 15 15 15 15 14 13 12 12 12 12 12 12 12 11 12 11 11 11 11 9 8 9 11 11 8 6 7 8 7 7 7 6 5 4 4
17 16 16 15 15 15 15 16 16 17 17 16 15 14 13 13 12 12 12 12 12 11 12 11 11 11 11 12 9 8 7 8 10 10 6 8 8 8 7 6 6 5 5
17 17 16 16 16 16 16 16 16 17 16 15 15 15 14 13 13 13 12 12 13 12 12 12 12 12 11 11 10 9 9 8 7 9 11 9 7 7 7 6 6 5 5
17 17 17 16 16 16 16 16 17 17 16 16 16 15 14 14 14 13 13 13 13 12 12 12 12 12 12 11 10 9 9 10 9 9 9 9 8 7 8 7 7 6 5